sat.trackr.live / text

‹ back to catalog

UNKNOWN

NORAD 87557

UNKNOWN UNKNOWN UNKNOWN

§ Identity

Operator
Country
Launch date
Launch site
Launch vehicle
Mass (kg)
RCS (m²)

External: N2YO · Heavens-Above

§ Orbital elements

Epoch: 2026-05-22T09:15:39.850560Z

Period
108.34 min
Inclination
101.8095°
Eccentricity
0.0083923
Mean motion
13.29202060 rev/d
Perigee alt
1,086.6 km
Apogee alt
1,213.0 km
Semi-major
7,527.9 km
B*
7.3387e-3
RAAN
24.5502°
Arg perigee
24.9677°
Mean anomaly
335.5463°
Rev number
58,636

§ Raw data

UNKNOWN1 87557U          26142.38587790  .00003400  00000+0  73387-2 0  99902 87557 101.8095  24.5502 0083923  24.9677 335.5463 13.29202060586368

JSON: /api/v1/satellites/87557 · /tle

For live sub-satellite position, see the globe view (requires WebGL).

§ Visibility from observer

Set your observer location to see the next 7 days of passes ≥ 10°. The values pass through the URL so the page stays shareable.

No JS? Fill the form by hand. The geolocation button needs JavaScript.